DW7955 Weather Reports


Display with metric or nautical units.
time (UTC)temp
F
wind
direction
speed
MPH
gust
MPH
rain 1hr
in
rain 24hr
in
rain mn
in
humidity
%
barometer
mb
20260902083008 63 194 0.0 0.0 0.00 0.00 0.00 72 1006.4
20260902081506 64 194 0.0 0.0 0.00 0.00 0.00 70 1006.4
20260902080004 64 194 0.0 2.0 0.00 0.00 0.00 69 1006.7
20260902074503 65 346 0.0 0.0 0.00 0.00 0.00 69 1006.6
20260902073103 66 346 0.0 0.0 0.00 0.00 0.00 67 1006.6
20260902071557 67 346 0.0 2.0 0.00 0.00 0.00 65 1006.6
20260902070054 68 346 0.0 4.0 0.00 0.00 0.00 63 1006.4
20260902064554 68 347 4.0 9.0 0.00 0.00 0.00 63 1006.2
20260902063050 68 1 4.0 8.0 0.00 0.00 0.00 61 1006.2
20260902061559 69 356 3.0 5.0 0.00 0.00 0.00 60 1006.1
20260902060055 69 24 5.0 6.0 0.00 0.00 0.00 59 1006.2
20260902054605 70 33 2.0 7.0 0.00 0.00 0.00 59 1006.5
20260902053059 70 28 5.0 9.0 0.00 0.00 0.00 58 1006.2
20260902051543 71 351 1.0 3.0 0.00 0.00 0.00 55 1006.0
20260902050045 73 141 0.0 2.0 0.00 0.00 0.00 53 1006.0
20260902044543 73 139 2.0 5.0 0.00 0.00 0.00 52 1005.9
20260902043045 74 175 1.0 4.0 0.00 0.00 0.00 51 1005.9
20260902041546 75 132 2.0 4.0 0.00 0.00 0.00 49 1006.1
20260902040048 76 135 4.0 8.0 0.00 0.00 0.00 48 1006.3
20260902034541 75 119 7.0 12.0 0.00 0.00 0.00 49 1005.9
20260902033040 75 67 4.0 12.0 0.00 0.00 0.00 50 1006.0
20260902031544 76 126 3.0 8.0 0.00 0.00 0.00 46 1006.4
20260902030039 77 140 0.0 5.0 0.00 0.00 0.00 45 1006.4
20260902024541 77 70 4.0 11.0 0.00 0.00 0.00 46 1005.8
20260902023044 77 80 6.0 13.0 0.00 0.00 0.00 46 1005.5
20260902021538 77 59 7.0 12.0 0.00 0.00 0.00 48 1005.1
20260902020039 77 117 5.0 14.0 0.00 0.00 0.00 48 1004.8
20260902014538 78 133 6.0 18.0 0.00 0.00 0.00 46 1004.8
20260902013043 79 97 8.0 18.0 0.00 0.00 0.00 42 1004.8
20260902011537 80 84 4.0 11.0 0.00 0.00 0.00 38 1004.8
20260902010036 80 83 5.0 11.0 0.00 0.00 0.00 37 1004.6
20260902004536 81 128 6.0 10.0 0.00 0.00 0.00 38 1004.6
20260902003039 81 114 5.0 12.0 0.00 0.00 0.00 38 1004.7
20260902001552 81 142 8.0 16.0 0.00 0.00 0.00 38 1004.7
20260902000038 82 122 11.0 17.0 0.00 0.00 0.00 37 1004.6
20260901234534 84 111 9.0 19.0 0.00 0.00 0.00 36 1004.6
20260901233035 86 106 10.0 18.0 0.00 0.00 0.00 29 1004.5
20260901231531 86 107 10.0 24.0 0.00 0.00 0.00 30 1004.4
20260901230031 87 82 14.0 18.0 0.00 0.00 0.00 31 1004.7
20260901224529 87 129 4.0 11.0 0.00 0.00 0.00 30 1004.9
20260901223027 86 107 6.0 12.0 0.00 0.00 0.00 30 1005.0
20260901221525 87 102 6.0 14.0 0.00 0.00 0.00 29 1005.2
20260901220023 86 126 9.0 14.0 0.00 0.00 0.00 30 1005.6
20260901214523 86 151 4.0 12.0 0.00 0.00 0.00 29 1005.5
20260901213020 85 198 6.0 16.0 0.00 0.00 0.00 29 1005.7
20260901211519 86 145 5.0 11.0 0.00 0.00 0.00 29 1005.8
20260901210017 85 141 7.0 12.0 0.00 0.00 0.00 29 1005.9
20260901204516 85 132 6.0 11.0 0.00 0.00 0.00 30 1006.0
20260901203015 84 178 5.0 15.0 0.00 0.00 0.00 31 1006.4
20260901201510 84 131 8.0 15.0 0.00 0.00 0.00 32 1006.5
20260901200008 83 131 4.0 14.0 0.00 0.00 0.00 36 1006.8
20260901194506 83 116 7.0 13.0 0.00 0.00 0.00 37 1007.0
20260901193005 82 112 11.0 16.0 0.00 0.00 0.00 41 1007.2
20260901191503 82 155 7.0 15.0 0.00 0.00 0.00 42 1007.4
20260901190003 82 123 6.0 12.0 0.00 0.00 0.00 42 1007.4
20260901184502 84 175 3.0 9.0 0.00 0.00 0.00 30 1007.5
20260901183102 83 286 4.0 12.0 0.00 0.00 0.00 31 1007.5
20260901181604 82 292 9.0 12.0 0.00 0.00 0.00 32 1007.4
20260901180054 80 320 5.0 14.0 0.00 0.00 0.00 38 1007.5
20260901174550 78 308 4.0 9.0 0.00 0.00 0.00 46 1007.9
20260901173057 76 41 7.0 10.0 0.00 0.00 0.00 53 1008.7
20260901171551 74 24 5.0 8.0 0.00 0.00 0.00 55 1008.9
20260901170044 73 42 3.0 6.0 0.00 0.00 0.00 56 1009.1
20260901164542 71 356 2.0 5.0 0.00 0.00 0.00 61 1009.1
20260901163032 69 290 2.0 9.0 0.00 0.00 0.00 66 1009.1
20260901161548 67 248 1.0 5.0 0.00 0.00 0.00 71 1009.0
20260901160032 66 328 2.0 4.0 0.00 0.00 0.00 73 1008.9
20260901154532 65 279 3.0 6.0 0.00 0.00 0.00 74 1008.6
20260901153029 64 293 2.0 4.0 0.00 0.00 0.00 79 1008.8
20260901151531 64 212 0.0 0.0 0.00 0.00 0.00 82 1008.8
20260901150037 63 212 0.0 0.0 0.00 0.00 0.00 83 1008.9
20260901144537 63 212 1.0 4.0 0.00 0.00 0.00 83 1009.2
20260901143026 63 227 0.0 3.0 0.00 0.00 0.00 81 1008.9
20260901141525 63 227 2.0 4.0 0.00 0.00 0.00 81 1009.1
20260901140024 63 166 2.0 6.0 0.00 0.00 0.00 80 1009.2
20260901134525 63 79 0.0 1.0 0.00 0.00 0.00 78 1009.0
20260901133022 63 55 0.0 1.0 0.00 0.00 0.00 79 1008.7
20260901131525 63 133 0.0 0.0 0.00 0.00 0.00 80 1008.6
20260901130025 62 133 0.0 0.0 0.00 0.00 0.00 81 1008.5
20260901124520 62 133 0.0 7.0 0.00 0.00 0.00 81 1008.5
20260901123019 62 89 0.0 0.0 0.00 0.00 0.00 82 1008.3
20260901121518 62 89 0.0 5.0 0.00 0.00 0.00 82 1008.4
20260901120017 62 254 0.0 0.0 0.00 0.00 0.00 82 1008.3
20260901114515 62 254 0.0 4.0 0.00 0.00 0.00 81 1008.1
20260901113014 62 254 0.0 2.0 0.00 0.00 0.00 81 1008.3
20260901111512 63 286 0.0 3.0 0.00 0.00 0.00 80 1007.9
20260901110011 63 326 0.0 4.0 0.00 0.00 0.00 79 1007.8
20260901104512 63 288 1.0 6.0 0.00 0.00 0.00 79 1008.0
20260901103008 63 346 4.0 7.0 0.00 0.00 0.00 79 1008.1
20260901101508 63 24 5.0 9.0 0.00 0.00 0.00 79 1008.2
20260901100005 64 16 6.0 10.0 0.00 0.00 0.00 78 1008.4
20260901094503 64 316 2.0 4.0 0.00 0.00 0.00 75 1009.4
20260901093103 64 41 0.0 4.0 0.00 0.00 0.00 74 1009.2
20260901091604 64 49 3.0 5.0 0.00 0.00 0.00 73 1008.9
20260901090058 64 34 3.0 6.0 0.00 0.00 0.00 72 1008.9
20260901084558 65 28 0.0 7.0 0.00 0.00 0.00 70 1008.8
20260901083057 65 80 0.0 8.0 0.00 0.00 0.00 70 1008.8